This demonstration page uses our WeatherBlox Daily Observations layout. Learn more.

Left ArrowRight Arrow

Hourly Observations for December 25, 2015

Temp ( °F °C ) Dew Point ( °F °C ) Humidity (%) Winds ( mph kmh ) Pressure ( in mb ) Visibility ( mi km ) Precip ( " mm )
12:33 am 00:33 Cloudy 30 -1 28 -2 93 93 SSW 7 11 30.21 1023 10 16 0.00 0.00
12:58 am 00:58 Cloudy 30 -1.3 28 -2.2 94 94 SW 6 9 30.19 1022 10 16 0.00 0.00
12:59 am 00:59 Cloudy 30 -1 28 -2 93 93 SSW 6 9 30.21 1023 10 16 0.00 0.00
1:58 am 01:58 Cloudy 29 -1.4 28 -2.2 94 94 SSW 5 7 30.19 1022 10 16 0.00 0.00
2:58 am 02:58 Cloudy 29 -1.7 28 -2.5 94 94 SSW 6 9 30.21 1023 10 16 0.00 0.00
3:01 am 03:01 Cloudy 28 -2 28 -2 100 100 SSW 5 7 30.24 1024 10 16 0.00 0.00
3:11 am 03:11 Cloudy 28 -2 28 -2 100 100 SSW 5 7 30.21 1023 10 16 0.00 0.00
3:58 am 03:58 Cloudy 29 -1.8 28 -2.5 95 95 S 6 9 30.21 1023 10 16 0.00 0.00
4:38 am 04:38 Cloudy 28 -2 28 -2 100 100 ESE 2 4 30.21 1023 10 16 0.00 0.00
4:58 am 04:58 Cloudy 29 -1.7 28 -2.5 94 94 SSE 5 7 30.21 1023 10 16 0.00 0.00
5:48 am 05:48 Cloudy 28 -2 27 -3 93 93 SE 2 4 30.24 1024 10 16 0.00 0.00
5:58 am 05:58 Cloudy 29 -1.7 28 -2.5 94 94 SE 5 7 30.21 1023 10 16 0.00 0.00
6:58 am 06:58 Cloudy 29 -1.9 27 -2.7 94 94 SSE 6 9 30.24 1024 10 16 0.00 0.00
7:11 am 07:11 Cloudy 28 -2 27 -3 93 93 SE 7 11 30.24 1024 10 16 0.00 0.00
7:40 am 07:40 Cloudy 28 -2 27 -3 93 93 SE 3 6 30.24 1024 10 16 0.00 0.00
7:58 am 07:58 Cloudy 28 -2.3 27 -2.8 96 96 E 6 9 30.24 1024 10 16 0.00 0.00
8:58 am 08:58 Cloudy 28 -2.1 27 -2.7 96 96 SE 5 7 30.25 1025 7 11 0.00 0.00
9:58 am 09:58 Cloudy 28 -2 27 -2.7 95 95 ESE 6 9 30.26 1025 8 13 0.00 0.00
10:58 am 10:58 Cloudy 28 -2 27 -2.6 96 96 ESE 6 9 30.27 1025 8 13 0.00 0.00
11:52 am 11:52 Cloudy 28 -2 27 -3 93 93 ESE 5 7 30.27 1025 10 16 0.00 0.00
11:58 am 11:58 Cloudy 29 -1.9 26 -3.1 92 92 E 5 7 30.26 1025 10 16 0.00 0.00
11:59 am 11:59 Cloudy 28 -2 27 -3 93 93 E 5 7 30.27 1025 10 16 0.00 0.00
12:23 pm 12:23 Cloudy 28 -2 27 -3 93 93 E 5 7 30.24 1024 10 16 0.00 0.00
12:58 pm 12:58 Cloudy 29 -1.8 27 -2.7 94 94 NE 9 15 30.21 1023 7 11 0.00 0.00
1:22 pm 13:22 Cloudy 28 -2 27 -3 93 93 E 7 11 30.24 1024 10 16 0.00 0.00
1:24 pm 13:24 Cloudy 28 -2 27 -3 93 93 E 7 11 30.24 1024 10 16 0.00 0.00
1:36 pm 13:36 Cloudy 28 -2 27 -3 93 93 NE 8 13 30.21 1023 10 16 0.00 0.00
1:42 pm 13:42 Cloudy with Light Wintry Mix 30 -1 27 -3 86 86 E 7 11 30.21 1023 10 16 0.00 0.00
1:58 pm 13:58 Cloudy 29 -1.8 27 -2.7 94 94 E 8 13 30.19 1023 10 16 0.00 0.00
2:04 pm 14:04 Cloudy 28 -2 27 -3 93 93 E 8 13 30.21 1023 10 16 0.00 0.00
2:22 pm 14:22 Cloudy 28 -2 27 -3 93 93 ENE 7 11 30.18 1022 10 16 0.00 0.00
2:58 pm 14:58 Cloudy 29 -1.7 26 -3.3 89 89 ENE 7 11 30.18 1022 10 16 0.00 0.00
3:36 pm 15:36 Cloudy 28 -2 27 -3 93 93 ENE 8 13 30.18 1022 10 16 0.00 0.00
3:58 pm 15:58 Cloudy 29 -1.9 26 -3.1 92 92 ENE 8 13 30.16 1021 10 16 0.00 0.00
4:05 pm 16:05 Cloudy 28 -2 27 -3 93 93 ENE 9 15 30.15 1021 10 16 0.00 0.00
4:58 pm 16:58 Cloudy 29 -1.6 28 -2.4 94 94 ENE 8 13 30.13 1020 10 16 0.00 0.00
5:14 pm 17:14 Cloudy 30 -1 28 -2 93 93 E 8 13 30.15 1021 10 16 0.00 0.00
5:58 pm 17:58 Cloudy 32 -0.1 29 -1.5 90 90 NE 6 9 30.17 1022 10 16 0.00 0.00
6:32 pm 18:32 Cloudy 32 0 30 -1 93 93 NE 10 17 30.15 1021 10 16 0.00 0.00
6:51 pm 18:51 Mostly Cloudy 32 0 30 -1 93 93 ENE 10 17 30.15 1021 10 16 0.00 0.00
6:58 pm 18:58 Mostly Cloudy 31 -0.4 30 -1.3 94 94 ENE 12 19 30.12 1020 10 16 0.00 0.00
7:27 pm 19:27 Cloudy 32 0 30 -1 93 93 NE 9 15 30.12 1020 10 16 0.00 0.00
7:58 pm 19:58 Cloudy 33 0.3 30 -1.3 89 89 NE 9 15 30.16 1021 10 16 0.00 0.00
8:07 pm 20:07 Cloudy with Light Snow 32 0 30 -1 93 93 NE 15 24 30.15 1021 9 14 0.00 0.00
8:19 pm 20:19 Cloudy 32 0 30 -1 93 93 NE 16 26 30.12 1020 10 16 0.00 0.00
8:58 pm 20:58 Cloudy 32 0.2 30 -1.2 90 90 ENE 14 22 30.11 1020 10 16 0.00 0.03
9:37 pm 21:37 Cloudy 32 0 30 -1 93 93 ENE 15 24 30.09 1019 10 16 0.00 0.00
9:53 pm 21:53 Cloudy 32 0 32 0 100 100 E 13 20 30.09 1019 10 16 0.00 0.00
9:58 pm 21:58 Cloudy 33 0.8 31 -0.8 89 89 E 13 20 30.08 1019 10 16 0.00 0.00
10:58 pm 22:58 Cloudy 35 1.4 31 -0.3 89 89 E 14 22 30.06 1018 10 16 0.00 0.03
11:58 pm 23:58 Cloudy 35 1.6 32 0.2 91 91 ENE 10 17 30.05 1018 10 16 0.00 0.03

Powered by AerisWeather